WetterOnline ( http://www.wetteronline.de )

Wetter aktuell Hitzhusen

Aktuelles Wetter: Quickborn (17m)

6-stündlich | Neueste Meldungen
Ortszeit Temperatur Wetter
So, 17.02. 13:00 13.0° C wolkenlos
So, 17.02. 7:00 7.8° C bedeckt
So, 17.02. 1:00 9.2° C bedeckt
Sa, 16.02. 19:00 4.9° C wolkig
Sa, 16.02. 13:00 12.1° C leicht bewölkt
Sa, 16.02. 7:00 4.5° C wolkenlos
Sa, 16.02. 1:00 3.8° C wolkenlos
Fr, 15.02. 19:00 4.6° C wolkenlos
Ortszeit Temperatur Wetter
So, 17.02. 16:00 14.0° C leicht bewölkt
So, 17.02. 15:50 14.0° C wolkig
So, 17.02. 15:40 14.2° C wolkig
So, 17.02. 15:30 14.2° C leicht bewölkt
So, 17.02. 15:20 14.2° C leicht bewölkt
So, 17.02. 15:10 14.0° C bedeckt
So, 17.02. 15:00 14.3° C leicht bewölkt
So, 17.02. 14:30 14.1° C leicht bewölkt
So, 17.02. 14:00 13.7° C leicht bewölkt
So, 17.02. 13:30 13.3° C wolkenlos
So, 17.02. 13:00 13.0° C wolkenlos
Ortszeit Relative Feuchte Sichtweite
So, 17.02. 13:00 54% 15 km
So, 17.02. 7:00 81% 13 km
So, 17.02. 1:00 72% 17 km
Sa, 16.02. 19:00 81% 16 km
Sa, 16.02. 13:00 50% 27 km
Sa, 16.02. 7:00 64% 50 km
Sa, 16.02. 1:00 75% 45 km
Fr, 15.02. 19:00 71% 55 km
Ortszeit Relative Feuchte Sichtweite
So, 17.02. 16:00 46% 20 km
So, 17.02. 15:50 46% -
So, 17.02. 15:40 49% -
So, 17.02. 15:30 49% 19 km
So, 17.02. 15:20 49% -
So, 17.02. 15:10 47% -
So, 17.02. 15:00 47% 19 km
So, 17.02. 14:30 46% 17 km
So, 17.02. 14:00 46% 17 km
So, 17.02. 13:30 48% 17 km
So, 17.02. 13:00 54% 15 km
Ortszeit Niederschlagsmenge Niederschlagsart
So, 17.02. 13:00 0.0 l/m2 in 6 Std. -
So, 17.02. 7:00 0.0 l/m2 in 12 Std. -
So, 17.02. 1:00 0.0 l/m2 in 6 Std. -
Sa, 16.02. 19:00 0.0 l/m2 in 12 Std. -
Sa, 16.02. 13:00 0.0 l/m2 in 6 Std. -
Sa, 16.02. 7:00 0.0 l/m2 in 12 Std. -
Sa, 16.02. 1:00 0.0 l/m2 in 6 Std. -
Fr, 15.02. 19:00 0.0 l/m2 in 12 Std. -
Ortszeit Niederschlagsmenge Niederschlagsart
So, 17.02. 16:00 0.0 l/m2 in 1 Std. -
So, 17.02. 15:50 keine Meldung -
So, 17.02. 15:40 keine Meldung -
So, 17.02. 15:30 0.0 l/m2 in 1 Std. -
So, 17.02. 15:20 keine Meldung -
So, 17.02. 15:10 keine Meldung -
So, 17.02. 15:00 0.0 l/m2 in 1 Std. -
So, 17.02. 14:30 0.0 l/m2 in 1 Std. -
So, 17.02. 14:00 0.0 l/m2 in 1 Std. -
So, 17.02. 13:30 0.0 l/m2 in 1 Std. -
So, 17.02. 13:00 0.0 l/m2 in 1 Std. -
Ortszeit Stärke Spitze Richtung
km/h Bft. km/h Grad Sektor
So, 17.02. 13:00 9 2 22 150° SO
So, 17.02. 7:00 9 2 17 180° S
So, 17.02. 1:00 9 2 19 220° SW
Sa, 16.02. 19:00 6 1 30 190° S
Sa, 16.02. 13:00 17 3 30 220° SW
Sa, 16.02. 7:00 7 2 11 180° S
Sa, 16.02. 1:00 6 1 7 170° S
Fr, 15.02. 19:00 4 1 14 170° S
Ortszeit Stärke Spitze Richtung
km/h Bft. km/h Grad Sektor
So, 17.02. 16:00 11 2 14 140° SO
So, 17.02. 15:50 11 2 - 140° SO
So, 17.02. 15:40 9 2 - 130° SO
So, 17.02. 15:30 9 2 13 150° SO
So, 17.02. 15:20 9 2 - 150° SO
So, 17.02. 15:10 11 2 - 140° SO
So, 17.02. 15:00 9 2 15 150° SO
So, 17.02. 14:30 9 2 15 170° S
So, 17.02. 14:00 9 2 17 170° S
So, 17.02. 13:30 9 2 17 170° S
So, 17.02. 13:00 9 2 20 150° SO
Ortszeit Untergrenze Bedeckung Gattung
total tief tief mittel hoch
So, 17.02. 13:00 - 0/8 0/8 - - -
So, 17.02. 7:00 600 m 8/8 8/8 - - -
So, 17.02. 1:00 600 m 8/8 8/8 - - -
Sa, 16.02. 19:00 8100 m 8/8 0/8 - - -
Sa, 16.02. 13:00 9000 m 7/8 0/8 - - -
Sa, 16.02. 7:00 - 0/8 0/8 - - -
Sa, 16.02. 1:00 - 0/8 0/8 - - -
Fr, 15.02. 19:00 - 0/8 0/8 - - -
Ortszeit Bedeckungsgrad in Achtel und Wolkenuntergrenze
So, 17.02. 16:00 7(7800m) 7(8400m) 8(10500m)
So, 17.02. 15:50 7(7800m) 7(8400m) 8(10500m)
So, 17.02. 15:40 6(7800m) 6(8400m) 7(10500m)
So, 17.02. 15:30 1(1800m) 3(7200m) 6(10500m)
So, 17.02. 15:20 1(1800m) 3(7200m) 6(10500m)
So, 17.02. 15:10 9 9 9
So, 17.02. 15:00 7(7200m)
So, 17.02. 14:30 4(7200m)
So, 17.02. 14:00 2(6600m) 4(7200m)
So, 17.02. 13:30 keine Wolken
So, 17.02. 13:00 keine Wolken
Ortszeit Luftdruck NN (hPa) Tendenz (hPa in 3 Std.)
So, 17.02. 13:00 1023 - 1,2
So, 17.02. 7:00 1023 - 0,2
So, 17.02. 1:00 1024 + 0,2
Sa, 16.02. 19:00 1024 + 0,8
Sa, 16.02. 13:00 1024 - 0,1
Sa, 16.02. 7:00 1024 - 1,2
Sa, 16.02. 1:00 1027 - 1,1
Fr, 15.02. 19:00 1029 - 1,3
Ortszeit Luftdruck NN (hPa) Tendenz (hPa in 3 Std.)
So, 17.02. 16:00 1021 - 1,9
So, 17.02. 15:50 1021 keine Meldung
So, 17.02. 15:40 1021 keine Meldung
So, 17.02. 15:30 1021 - 2,1
So, 17.02. 15:20 1021 keine Meldung
So, 17.02. 15:10 1021 keine Meldung
So, 17.02. 15:00 1021 - 2,1
So, 17.02. 14:30 1021 - 2,1
So, 17.02. 14:00 1022 - 1,8
So, 17.02. 13:30 1022 - 1,3
So, 17.02. 13:00 1023 - 1,2
Ortszeit Schneehöhe (cm)
So, 17.02. 13:00 0
So, 17.02. 7:00 0
So, 17.02. 1:00 0
Sa, 16.02. 19:00 0
Sa, 16.02. 13:00 0
Sa, 16.02. 7:00 0
Sa, 16.02. 1:00 0
Fr, 15.02. 19:00 0
Ortszeit Schneehöhe (cm)
So, 17.02. 16:00 0
So, 17.02. 15:50 0
So, 17.02. 15:40 0
So, 17.02. 15:30 0
So, 17.02. 15:20 0
So, 17.02. 15:10 0
So, 17.02. 15:00 0
So, 17.02. 14:30 0
So, 17.02. 14:00 0
So, 17.02. 13:30 0
So, 17.02. 13:00 0
Link zu dieser Seite / Seite empfehlen

Das Wetter in ...